FW2930 Weather Reports


time (UTC)temp
C
wind
direction
speed
KPH
gust
KPH
rain 1hr
cm
rain 24hr
cm
rain mn
cm
humidity
%
barometer
mb
20260506222001 -17 185 17.7 17.7 0.00 0.00 0.00 -999.0
20260506221900 -17 138 17.7 17.7 0.00 0.00 0.00 -999.0
20260506221801 -17 165 12.9 12.9 0.00 0.00 0.00 -999.0
20260506221701 -17 158 11.3 11.3 0.00 0.00 0.00 -999.0
20260506221300 -17 152 19.3 19.3 0.00 0.00 0.00 -999.0
20260506221200 -17 144 9.7 9.7 0.00 0.00 0.00 -999.0
20260506221100 -17 166 14.5 14.5 0.00 0.00 0.00 -999.0
20260506221001 -17 148 20.9 20.9 0.00 0.00 0.00 -999.0
20260506220800 -17 147 17.7 17.7 0.00 0.00 0.00 -999.0
20260506220701 -17 150 17.7 17.7 0.00 0.00 0.00 -999.0
20260506220601 -17 130 22.5 22.5 0.00 0.00 0.00 -999.0
20260506220500 -17 165 19.3 19.3 0.00 0.00 0.00 -999.0
20260506220401 -17 184 16.1 16.1 0.00 0.00 0.00 -999.0
20260506220300 -17 157 16.1 16.1 0.00 0.00 0.00 -999.0
20260506220201 -17 143 11.3 11.3 0.00 0.00 0.00 -999.0
20260506220000 -17 175 14.5 14.5 0.00 0.00 0.00 -999.0
20260506215901 -17 139 14.5 14.5 0.00 0.00 0.00 -999.0
20260506215800 -17 145 11.3 11.3 0.00 0.00 0.00 -999.0
20260506215700 -17 142 14.5 14.5 0.00 0.00 0.00 -999.0
20260506215600 -17 150 17.7 17.7 0.00 0.00 0.00 -999.0
20260506215400 -17 152 16.1 16.1 0.00 0.00 0.00 -999.0
20260506215301 -17 152 17.7 17.7 0.00 0.00 0.00 -999.0
20260506215201 -17 164 19.3 19.3 0.00 0.00 0.00 -999.0
20260506215101 -17 146 19.3 19.3 0.00 0.00 0.00 -999.0
20260506215000 -17 177 14.5 14.5 0.00 0.00 0.00 -999.0
20260506214901 -17 148 11.3 11.3 0.00 0.00 0.00 -999.0
20260506214800 -17 153 12.9 12.9 0.00 0.00 0.00 -999.0
20260506214700 -17 167 14.5 14.5 0.00 0.00 0.00 -999.0
20260506214600 -17 146 16.1 16.1 0.00 0.00 0.00 -999.0
20260506214500 -17 148 6.4 6.4 0.00 0.00 0.00 -999.0
20260506214401 -17 134 12.9 12.9 0.00 0.00 0.00 -999.0
20260506214300 -17 152 19.3 19.3 0.00 0.00 0.00 -999.0
20260506214200 -17 153 16.1 16.1 0.00 0.00 0.00 -999.0
20260506214100 -17 157 12.9 12.9 0.00 0.00 0.00 -999.0
20260506213900 -17 147 17.7 17.7 0.00 0.00 0.00 -999.0
20260506213801 -17 175 17.7 17.7 0.00 0.00 0.00 -999.0
20260506213700 -17 162 20.9 20.9 0.00 0.00 0.00 -999.0
20260506213500 -17 169 14.5 14.5 0.00 0.00 0.00 -999.0
20260506213400 -17 148 17.7 17.7 0.00 0.00 0.00 -999.0
20260506213300 -17 139 12.9 12.9 0.00 0.00 0.00 -999.0
20260506213101 -17 134 12.9 12.9 0.00 0.00 0.00 -999.0
20260506213000 -17 154 14.5 14.5 0.00 0.00 0.00 -999.0
20260506212901 -17 142 16.1 16.1 0.00 0.00 0.00 -999.0
20260506212801 -17 154 20.9 20.9 0.00 0.00 0.00 -999.0
20260506212701 -17 144 16.1 16.1 0.00 0.00 0.00 -999.0
20260506212601 -17 129 12.9 12.9 0.00 0.00 0.00 -999.0
20260506212501 -17 158 12.9 12.9 0.00 0.00 0.00 -999.0
20260506212401 -17 148 14.5 14.5 0.00 0.00 0.00 -999.0
20260506212301 -17 148 19.3 19.3 0.00 0.00 0.00 -999.0
20260506212200 -17 126 14.5 14.5 0.00 0.00 0.00 -999.0
20260506212100 -17 157 14.5 14.5 0.00 0.00 0.00 -999.0
20260506212000 -17 155 12.9 12.9 0.00 0.00 0.00 -999.0
20260506211901 -17 149 14.5 14.5 0.00 0.00 0.00 -999.0
20260506211800 -17 150 17.7 17.7 0.00 0.00 0.00 -999.0
20260506211701 -17 158 19.3 19.3 0.00 0.00 0.00 -999.0
20260506211601 -17 146 19.3 19.3 0.00 0.00 0.00 -999.0
20260506211501 -17 159 17.7 17.7 0.00 0.00 0.00 -999.0
20260506211401 -17 143 19.3 19.3 0.00 0.00 0.00 -999.0
20260506211300 -17 148 20.9 20.9 0.00 0.00 0.00 -999.0
20260506211201 -17 155 20.9 20.9 0.00 0.00 0.00 -999.0
20260506211100 -17 146 22.5 22.5 0.00 0.00 0.00 -999.0
20260506211001 -17 164 19.3 19.3 0.00 0.00 0.00 -999.0
20260506210900 -17 146 19.3 19.3 0.00 0.00 0.00 -999.0
20260506210801 -17 148 19.3 19.3 0.00 0.00 0.00 -999.0
20260506210700 -17 153 16.1 16.1 0.00 0.00 0.00 -999.0
20260506210401 -17 139 17.7 17.7 0.00 0.00 0.00 -999.0
20260506210301 -17 145 19.3 19.3 0.00 0.00 0.00 -999.0
20260506210200 -17 143 19.3 19.3 0.00 0.00 0.00 -999.0
20260506210100 -17 147 20.9 20.9 0.00 0.00 0.00 -999.0
20260506210001 -17 160 16.1 16.1 0.00 0.00 0.00 -999.0
20260506205901 -17 153 17.7 17.7 0.00 0.00 0.00 -999.0
20260506205601 -17 137 19.3 19.3 0.00 0.00 0.00 -999.0
20260506205500 -17 152 14.5 14.5 0.00 0.00 0.00 -999.0
20260506205401 -17 150 17.7 17.7 0.00 0.00 0.00 -999.0
20260506205300 -17 155 16.1 16.1 0.00 0.00 0.00 -999.0
20260506205100 -17 139 22.5 22.5 0.00 0.00 0.00 -999.0
20260506205001 -17 149 20.9 20.9 0.00 0.00 0.00 -999.0
20260506204800 -17 156 19.3 19.3 0.00 0.00 0.00 -999.0
20260506204700 -17 162 16.1 16.1 0.00 0.00 0.00 -999.0
20260506204600 -17 147 14.5 14.5 0.00 0.00 0.00 -999.0
20260506204301 -17 143 17.7 17.7 0.00 0.00 0.00 -999.0
20260506204201 -17 123 19.3 19.3 0.00 0.00 0.00 -999.0
20260506204101 -17 168 14.5 14.5 0.00 0.00 0.00 -999.0
20260506203901 -17 147 14.5 14.5 0.00 0.00 0.00 -999.0
20260506203801 -17 134 22.5 22.5 0.00 0.00 0.00 -999.0
20260506203701 -17 143 22.5 22.5 0.00 0.00 0.00 -999.0
20260506203601 -17 139 20.9 20.9 0.00 0.00 0.00 -999.0
20260506203501 -17 151 22.5 22.5 0.00 0.00 0.00 -999.0
20260506203300 -17 129 17.7 17.7 0.00 0.00 0.00 -999.0
20260506203200 -17 137 20.9 20.9 0.00 0.00 0.00 -999.0
20260506203101 -17 141 16.1 16.1 0.00 0.00 0.00 -999.0
20260506202901 -17 140 16.1 16.1 0.00 0.00 0.00 -999.0
20260506202801 -17 158 14.5 14.5 0.00 0.00 0.00 -999.0
20260506202700 -17 154 16.1 16.1 0.00 0.00 0.00 -999.0
20260506202601 -17 134 16.1 16.1 0.00 0.00 0.00 -999.0
20260506202501 -17 153 19.3 19.3 0.00 0.00 0.00 -999.0
20260506202300 -17 149 17.7 17.7 0.00 0.00 0.00 -999.0
20260506202200 -17 152 17.7 17.7 0.00 0.00 0.00 -999.0
20260506202100 -17 143 19.3 19.3 0.00 0.00 0.00 -999.0
20260506202000 -17 150 16.1 16.1 0.00 0.00 0.00 -999.0
20260506201801 -17 143 22.5 22.5 0.00 0.00 0.00 -999.0
20260506201701 -17 147 20.9 20.9 0.00 0.00 0.00 -999.0
20260506201600 -17 150 20.9 20.9 0.00 0.00 0.00 -999.0
20260506201501 -17 168 16.1 16.1 0.00 0.00 0.00 -999.0
20260506201401 -17 143 20.9 20.9 0.00 0.00 0.00 -999.0
20260506201301 -17 124 19.3 19.3 0.00 0.00 0.00 -999.0
20260506201101 -17 161 20.9 20.9 0.00 0.00 0.00 -999.0
20260506200900 -17 143 20.9 20.9 0.00 0.00 0.00 -999.0
20260506200801 -17 158 16.1 16.1 0.00 0.00 0.00 -999.0
20260506200700 -17 144 17.7 17.7 0.00 0.00 0.00 -999.0
20260506200600 -17 140 14.5 14.5 0.00 0.00 0.00 -999.0
20260506200501 -17 143 19.3 19.3 0.00 0.00 0.00 -999.0
20260506200401 -17 143 14.5 14.5 0.00 0.00 0.00 -999.0
20260506200300 -17 131 11.3 11.3 0.00 0.00 0.00 -999.0
20260506200200 -17 131 16.1 16.1 0.00 0.00 0.00 -999.0
20260506200100 -17 139 14.5 14.5 0.00 0.00 0.00 -999.0
20260506200000 -17 122 17.7 17.7 0.00 0.00 0.00 -999.0
20260506195900 -17 142 16.1 16.1 0.00 0.00 0.00 -999.0
20260506195801 -17 151 16.1 16.1 0.00 0.00 0.00 -999.0
20260506195701 -17 133 20.9 20.9 0.00 0.00 0.00 -999.0
20260506195600 -17 153 14.5 14.5 0.00 0.00 0.00 -999.0
20260506195501 -17 146 20.9 20.9 0.00 0.00 0.00 -999.0
20260506195400 -17 158 17.7 17.7 0.00 0.00 0.00 -999.0
20260506195301 -17 145 16.1 16.1 0.00 0.00 0.00 -999.0
20260506195201 -17 164 14.5 14.5 0.00 0.00 0.00 -999.0
20260506195101 -17 131 14.5 14.5 0.00 0.00 0.00 -999.0
20260506195001 -17 146 14.5 14.5 0.00 0.00 0.00 -999.0
20260506194900 -17 156 17.7 17.7 0.00 0.00 0.00 -999.0
20260506194801 -17 125 12.9 12.9 0.00 0.00 0.00 -999.0
20260506194700 -17 161 14.5 14.5 0.00 0.00 0.00 -999.0
20260506194600 -17 151 19.3 19.3 0.00 0.00 0.00 -999.0
20260506194500 -17 139 22.5 22.5 0.00 0.00 0.00 -999.0
20260506194201 -17 144 11.3 11.3 0.00 0.00 0.00 -999.0
20260506194101 -17 137 19.3 19.3 0.00 0.00 0.00 -999.0
20260506194000 -17 150 20.9 20.9 0.00 0.00 0.00 -999.0
20260506193900 -17 146 20.9 20.9 0.00 0.00 0.00 -999.0
20260506193801 -17 137 17.7 17.7 0.00 0.00 0.00 -999.0
20260506193701 -17 145 19.3 19.3 0.00 0.00 0.00 -999.0
20260506193500 -17 143 16.1 16.1 0.00 0.00 0.00 -999.0
20260506193401 -17 141 14.5 14.5 0.00 0.00 0.00 -999.0
20260506193300 -17 149 17.7 17.7 0.00 0.00 0.00 -999.0
20260506193201 -17 141 17.7 17.7 0.00 0.00 0.00 -999.0
20260506193100 -17 139 11.3 11.3 0.00 0.00 0.00 -999.0
20260506192901 -17 146 14.5 14.5 0.00 0.00 0.00 -999.0
20260506192801 -17 143 19.3 19.3 0.00 0.00 0.00 -999.0
20260506192700 -17 146 22.5 22.5 0.00 0.00 0.00 -999.0
20260506192501 -17 139 19.3 19.3 0.00 0.00 0.00 -999.0
20260506192300 -17 139 17.7 17.7 0.00 0.00 0.00 -999.0
20260506192201 -17 141 11.3 11.3 0.00 0.00 0.00 -999.0
20260506192001 -17 143 14.5 14.5 0.00 0.00 0.00 -999.0
20260506191900 -17 127 14.5 14.5 0.00 0.00 0.00 -999.0
20260506191801 -17 103 14.5 14.5 0.00 0.00 0.00 -999.0
20260506191701 -17 153 17.7 17.7 0.00 0.00 0.00 -999.0
20260506191601 -17 158 16.1 16.1 0.00 0.00 0.00 -999.0
20260506191501 -17 158 12.9 12.9 0.00 0.00 0.00 -999.0
20260506191400 -17 148 17.7 17.7 0.00 0.00 0.00 -999.0
20260506191300 -17 135 14.5 14.5 0.00 0.00 0.00 -999.0
20260506191201 -17 133 14.5 14.5 0.00 0.00 0.00 -999.0
20260506191001 -17 136 12.9 12.9 0.00 0.00 0.00 -999.0
20260506190901 -17 141 14.5 14.5 0.00 0.00 0.00 -999.0
20260506190801 -17 146 12.9 12.9 0.00 0.00 0.00 -999.0
20260506190700 -17 145 19.3 19.3 0.00 0.00 0.00 -999.0
20260506190601 -17 139 14.5 14.5 0.00 0.00 0.00 -999.0
20260506190500 -17 142 16.1 16.1 0.00 0.00 0.00 -999.0
20260506190400 -17 161 14.5 14.5 0.00 0.00 0.00 -999.0
20260506190300 -17 149 16.1 16.1 0.00 0.00 0.00 -999.0
20260506190200 -17 115 16.1 16.1 0.00 0.00 0.00 -999.0
20260506190101 -17 122 12.9 12.9 0.00 0.00 0.00 -999.0
20260506190000 -17 130 19.3 19.3 0.00 0.00 0.00 -999.0
20260506185901 -17 139 12.9 12.9 0.00 0.00 0.00 -999.0
20260506185801 -17 132 9.7 9.7 0.00 0.00 0.00 -999.0
20260506185700 -17 157 12.9 12.9 0.00 0.00 0.00 -999.0
20260506185600 -17 131 19.3 19.3 0.00 0.00 0.00 -999.0
20260506185501 -17 108 16.1 16.1 0.00 0.00 0.00 -999.0
20260506185300 -17 133 17.7 17.7 0.00 0.00 0.00 -999.0
20260506185201 -17 136 16.1 16.1 0.00 0.00 0.00 -999.0
20260506185100 -17 142 12.9 12.9 0.00 0.00 0.00 -999.0
20260506185001 -17 130 12.9 12.9 0.00 0.00 0.00 -999.0
20260506184901 -17 150 12.9 12.9 0.00 0.00 0.00 -999.0
20260506184800 -17 134 12.9 12.9 0.00 0.00 0.00 -999.0
20260506184700 -17 125 16.1 16.1 0.00 0.00 0.00 -999.0
20260506184501 -17 138 12.9 12.9 0.00 0.00 0.00 -999.0
20260506184300 -17 122 12.9 12.9 0.00 0.00 0.00 -999.0
20260506184200 -17 145 14.5 14.5 0.00 0.00 0.00 -999.0
20260506184100 -17 158 12.9 12.9 0.00 0.00 0.00 -999.0
20260506183901 -17 155 14.5 14.5 0.00 0.00 0.00 -999.0
20260506183801 -17 149 14.5 14.5 0.00 0.00 0.00 -999.0
20260506183700 -17 136 14.5 14.5 0.00 0.00 0.00 -999.0
20260506183601 -17 142 14.5 14.5 0.00 0.00 0.00 -999.0
20260506183500 -17 156 14.5 14.5 0.00 0.00 0.00 -999.0
20260506183400 -17 143 17.7 17.7 0.00 0.00 0.00 -999.0
20260506183301 -17 150 12.9 12.9 0.00 0.00 0.00 -999.0
20260506183201 -17 126 14.5 14.5 0.00 0.00 0.00 -999.0
20260506183101 -17 136 14.5 14.5 0.00 0.00 0.00 -999.0
20260506183001 -17 113 12.9 12.9 0.00 0.00 0.00 -999.0
20260506182901 -17 141 16.1 16.1 0.00 0.00 0.00 -999.0
20260506182800 -17 170 9.7 9.7 0.00 0.00 0.00 -999.0
20260506182700 -17 124 11.3 11.3 0.00 0.00 0.00 -999.0
20260506182601 -17 148 11.3 11.3 0.00 0.00 0.00 -999.0
20260506182501 -17 147 16.1 16.1 0.00 0.00 0.00 -999.0
20260506182400 -17 134 12.9 12.9 0.00 0.00 0.00 -999.0
20260506182101 -17 138 12.9 12.9 0.00 0.00 0.00 -999.0
20260506182000 -17 148 11.3 11.3 0.00 0.00 0.00 -999.0
20260506181900 -17 143 16.1 16.1 0.00 0.00 0.00 -999.0
20260506181800 -17 155 12.9 12.9 0.00 0.00 0.00 -999.0
20260506181700 -17 149 12.9 12.9 0.00 0.00 0.00 -999.0
20260506181600 -17 138 9.7 9.7 0.00 0.00 0.00 -999.0
20260506181500 -17 153 12.9 12.9 0.00 0.00 0.00 -999.0
20260506181400 -17 154 16.1 16.1 0.00 0.00 0.00 -999.0
20260506181300 -17 165 12.9 12.9 0.00 0.00 0.00 -999.0
20260506181000 -17 143 12.9 12.9 0.00 0.00 0.00 -999.0
20260506180901 -17 155 14.5 14.5 0.00 0.00 0.00 -999.0
20260506180800 -17 145 16.1 16.1 0.00 0.00 0.00 -999.0
20260506180600 -17 144 14.5 14.5 0.00 0.00 0.00 -999.0
20260506180500 -17 158 12.9 12.9 0.00 0.00 0.00 -999.0
20260506180400 -17 154 9.7 9.7 0.00 0.00 0.00 -999.0
20260506180300 -17 144 14.5 14.5 0.00 0.00 0.00 -999.0
20260506180200 -17 144 14.5 14.5 0.00 0.00 0.00 -999.0
20260506180100 -17 133 16.1 16.1 0.00 0.00 0.00 -999.0
20260506180000 -17 139 11.3 11.3 0.00 0.00 0.00 -999.0
20260506175900 -17 148 14.5 14.5 0.00 0.00 0.00 -999.0
20260506175800 -17 146 9.7 9.7 0.00 0.00 0.00 -999.0
20260506175600 -17 146 16.1 16.1 0.00 0.00 0.00 -999.0
20260506175500 -17 128 11.3 11.3 0.00 0.00 0.00 -999.0
20260506175400 -17 141 11.3 11.3 0.00 0.00 0.00 -999.0
20260506175300 -17 141 9.7 9.7 0.00 0.00 0.00 -999.0
20260506175200 -17 133 11.3 11.3 0.00 0.00 0.00 -999.0
20260506175100 -17 142 9.7 9.7 0.00 0.00 0.00 -999.0
20260506175001 -17 133 11.3 11.3 0.00 0.00 0.00 -999.0
20260506174900 -17 148 6.4 6.4 0.00 0.00 0.00 -999.0
20260506174800 -17 136 8.0 8.0 0.00 0.00 0.00 -999.0
20260506174700 -17 140 12.9 12.9 0.00 0.00 0.00 -999.0
20260506174600 -17 136 12.9 12.9 0.00 0.00 0.00 -999.0
20260506174500 -17 125 12.9 12.9 0.00 0.00 0.00 -999.0
20260506174400 -17 141 12.9 12.9 0.00 0.00 0.00 -999.0
20260506174300 -17 148 11.3 11.3 0.00 0.00 0.00 -999.0
20260506174200 -17 135 12.9 12.9 0.00 0.00 0.00 -999.0
20260506174100 -17 136 6.4 6.4 0.00 0.00 0.00 -999.0
20260506174001 -17 150 11.3 11.3 0.00 0.00 0.00 -999.0
20260506173900 -17 128 9.7 9.7 0.00 0.00 0.00 -999.0
20260506173800 -17 136 8.0 8.0 0.00 0.00 0.00 -999.0
20260506173700 -17 131 9.7 9.7 0.00 0.00 0.00 -999.0
20260506173501 -17 144 12.9 12.9 0.00 0.00 0.00 -999.0
20260506173400 -17 142 12.9 12.9 0.00 0.00 0.00 -999.0
20260506173300 -17 119 12.9 12.9 0.00 0.00 0.00 -999.0
20260506173200 -17 125 9.7 9.7 0.00 0.00 0.00 -999.0
20260506173100 -17 137 9.7 9.7 0.00 0.00 0.00 -999.0
20260506173001 -17 142 8.0 8.0 0.00 0.00 0.00 -999.0
20260506172901 -17 126 11.3 11.3 0.00 0.00 0.00 -999.0
20260506172800 -17 120 8.0 8.0 0.00 0.00 0.00 -999.0
20260506172700 -17 124 9.7 9.7 0.00 0.00 0.00 -999.0
20260506172600 -17 142 9.7 9.7 0.00 0.00 0.00 -999.0
20260506172500 -17 131 11.3 11.3 0.00 0.00 0.00 -999.0
20260506172400 -17 120 12.9 12.9 0.00 0.00 0.00 -999.0
20260506172200 -17 131 11.3 11.3 0.00 0.00 0.00 -999.0
20260506172100 -17 137 6.4 6.4 0.00 0.00 0.00 -999.0
20260506172000 -17 127 8.0 8.0 0.00 0.00 0.00 -999.0
20260506171900 -17 143 6.4 6.4 0.00 0.00 0.00 -999.0
20260506171700 -17 124 6.4 6.4 0.00 0.00 0.00 -999.0
20260506171600 -17 146 8.0 8.0 0.00 0.00 0.00 -999.0
20260506171500 -17 150 6.4 6.4 0.00 0.00 0.00 -999.0
20260506171400 -17 130 9.7 9.7 0.00 0.00 0.00 -999.0
20260506171200 -17 131 9.7 9.7 0.00 0.00 0.00 -999.0
20260506171100 -17 115 11.3 11.3 0.00 0.00 0.00 -999.0
20260506170900 -17 131 9.7 9.7 0.00 0.00 0.00 -999.0
20260506170800 -17 131 9.7 9.7 0.00 0.00 0.00 -999.0
20260506170700 -17 119 11.3 11.3 0.00 0.00 0.00 -999.0
20260506170600 -17 137 9.7 9.7 0.00 0.00 0.00 -999.0
20260506170500 -17 139 8.0 8.0 0.00 0.00 0.00 -999.0
20260506170400 -17 129 11.3 11.3 0.00 0.00 0.00 -999.0
20260506170300 -17 122 8.0 8.0 0.00 0.00 0.00 -999.0
20260506170201 -17 139 9.7 9.7 0.00 0.00 0.00 -999.0
20260506170101 -17 139 8.0 8.0 0.00 0.00 0.00 -999.0
20260506170001 -17 124 9.7 9.7 0.00 0.00 0.00 -999.0
20260506165900 -17 122 9.7 9.7 0.00 0.00 0.00 -999.0
20260506165800 -17 126 8.0 8.0 0.00 0.00 0.00 -999.0
20260506165701 -17 122 8.0 8.0 0.00 0.00 0.00 -999.0
20260506165500 -17 133 9.7 9.7 0.00 0.00 0.00 -999.0
20260506165400 -17 132 9.7 9.7 0.00 0.00 0.00 -999.0
20260506165300 -17 127 14.5 14.5 0.00 0.00 0.00 -999.0
20260506165200 -17 130 11.3 11.3 0.00 0.00 0.00 -999.0
20260506165100 -17 134 11.3 11.3 0.00 0.00 0.00 -999.0
20260506165000 -17 129 11.3 11.3 0.00 0.00 0.00 -999.0
20260506164700 -17 117 9.7 9.7 0.00 0.00 0.00 -999.0
20260506164601 -17 103 12.9 12.9 0.00 0.00 0.00 -999.0
20260506164500 -17 133 9.7 9.7 0.00 0.00 0.00 -999.0
20260506164400 -17 131 12.9 12.9 0.00 0.00 0.00 -999.0
20260506164301 -17 148 11.3 11.3 0.00 0.00 0.00 -999.0
20260506164200 -17 140 9.7 9.7 0.00 0.00 0.00 -999.0
20260506164101 -17 122 8.0 8.0 0.00 0.00 0.00 -999.0
20260506163900 -17 131 9.7 9.7 0.00 0.00 0.00 -999.0
20260506163801 -17 142 9.7 9.7 0.00 0.00 0.00 -999.0
20260506163700 -17 131 6.4 6.4 0.00 0.00 0.00 -999.0
20260506163600 -17 135 4.8 4.8 0.00 0.00 0.00 -999.0
20260506163500 -17 146 1.6 1.6 0.00 0.00 0.00 -999.0
20260506163200 -17 161 4.8 4.8 0.00 0.00 0.00 -999.0
20260506163101 -17 210 4.8 4.8 0.00 0.00 0.00 -999.0
20260506163001 -17 155 6.4 6.4 0.00 0.00 0.00 -999.0
20260506162800 -17 117 8.0 8.0 0.00 0.00 0.00 -999.0
20260506162700 -17 113 6.4 6.4 0.00 0.00 0.00 -999.0
20260506162500 -17 125 4.8 4.8 0.00 0.00 0.00 -999.0
20260506162401 -17 107 4.8 4.8 0.00 0.00 0.00 -999.0
20260506162301 -17 155 1.6 1.6 0.00 0.00 0.00 -999.0
20260506162200 -17 110 1.6 1.6 0.00 0.00 0.00 -999.0
20260506162101 -17 102 0.0 0.0 0.00 0.00 0.00 -999.0
20260506162000 -17 102 0.0 0.0 0.00 0.00 0.00 -999.0
20260506161900 -17 101 0.0 0.0 0.00 0.00 0.00 -999.0
20260506161800 -17 102 0.0 0.0 0.00 0.00 0.00 -999.0
20260506161701 -17 101 1.6 1.6 0.00 0.00 0.00 -999.0
20260506161601 -17 101 1.6 1.6 0.00 0.00 0.00 -999.0
20260506161501 -17 110 0.0 0.0 0.00 0.00 0.00 -999.0
20260506161401 -17 127 1.6 1.6 0.00 0.00 0.00 -999.0
20260506161200 -17 134 3.2 3.2 0.00 0.00 0.00 -999.0
20260506161101 -17 159 3.2 3.2 0.00 0.00 0.00 -999.0
20260506161000 -17 122 4.8 4.8 0.00 0.00 0.00 -999.0
20260506160901 -17 120 4.8 4.8 0.00 0.00 0.00 -999.0
20260506160801 -17 131 3.2 3.2 0.00 0.00 0.00 -999.0
20260506160700 -17 174 4.8 4.8 0.00 0.00 0.00 -999.0
20260506160601 -17 130 8.0 8.0 0.00 0.00 0.00 -999.0
20260506160501 -17 124 6.4 6.4 0.00 0.00 0.00 -999.0
20260506160301 -17 111 4.8 4.8 0.00 0.00 0.00 -999.0
20260506160201 -17 120 3.2 3.2 0.00 0.00 0.00 -999.0
20260506160100 -17 115 0.0 0.0 0.00 0.00 0.00 -999.0
20260506160001 -17 115 0.0 0.0 0.00 0.00 0.00 -999.0
20260506155801 -17 103 1.6 1.6 0.00 0.00 0.00 -999.0
20260506155700 -17 133 1.6 1.6 0.00 0.00 0.00 -999.0
20260506155600 -17 136 3.2 3.2 0.00 0.00 0.00 -999.0
20260506155300 -17 127 4.8 4.8 0.00 0.00 0.00 -999.0
20260506155001 -17 116 6.4 6.4 0.00 0.00 0.00 -999.0
20260506154901 -17 127 3.2 3.2 0.00 0.00 0.00 -999.0
20260506154801 -17 138 4.8 4.8 0.00 0.00 0.00 -999.0
20260506154701 -17 133 6.4 6.4 0.00 0.00 0.00 -999.0
20260506154600 -17 157 1.6 1.6 0.00 0.00 0.00 -999.0
20260506154500 -17 141 4.8 4.8 0.00 0.00 0.00 -999.0
20260506154401 -17 136 1.6 1.6 0.00 0.00 0.00 -999.0
20260506154300 -17 131 9.7 9.7 0.00 0.00 0.00 -999.0
20260506154201 -17 134 8.0 8.0 0.00 0.00 0.00 -999.0
20260506154001 -17 140 6.4 6.4 0.00 0.00 0.00 -999.0
20260506153901 -17 100 6.4 6.4 0.00 0.00 0.00 -999.0
20260506153800 -17 141 6.4 6.4 0.00 0.00 0.00 -999.0
20260506153700 -17 158 6.4 6.4 0.00 0.00 0.00 -999.0
20260506153601 -17 129 6.4 6.4 0.00 0.00 0.00 -999.0
20260506153501 -17 136 8.0 8.0 0.00 0.00 0.00 -999.0
20260506153301 -17 160 1.6 1.6 0.00 0.00 0.00 -999.0
20260506153200 -17 136 6.4 6.4 0.00 0.00 0.00 -999.0
20260506153001 -17 157 6.4 6.4 0.00 0.00 0.00 -999.0
20260506152801 -17 199 4.8 4.8 0.00 0.00 0.00 -999.0
20260506152700 -17 206 9.7 9.7 0.00 0.00 0.00 -999.0
20260506152601 -17 198 3.2 3.2 0.00 0.00 0.00 -999.0
20260506152500 -17 200 6.4 6.4 0.00 0.00 0.00 -999.0
20260506152400 -17 193 4.8 4.8 0.00 0.00 0.00 -999.0
20260506152300 -17 206 8.0 8.0 0.00 0.00 0.00 -999.0
20260506152200 -17 200 14.5 14.5 0.00 0.00 0.00 -999.0
20260506152101 -17 212 6.4 6.4 0.00 0.00 0.00 -999.0
20260506152001 -17 194 1.6 1.6 0.00 0.00 0.00 -999.0
20260506151901 -17 158 4.8 4.8 0.00 0.00 0.00 -999.0
20260506151800 -17 214 3.2 3.2 0.00 0.00 0.00 -999.0
20260506151701 -17 198 4.8 4.8 0.00 0.00 0.00 -999.0
20260506151600 -17 187 6.4 6.4 0.00 0.00 0.00 -999.0
20260506151501 -17 183 3.2 3.2 0.00 0.00 0.00 -999.0
20260506151400 -17 217 1.6 1.6 0.00 0.00 0.00 -999.0
20260506151301 -17 221 4.8 4.8 0.00 0.00 0.00 -999.0
20260506151200 -17 127 6.4 6.4 0.00 0.00 0.00 -999.0
20260506151100 -17 198 6.4 6.4 0.00 0.00 0.00 -999.0
20260506150701 -17 230 6.4 6.4 0.00 0.00 0.00 -999.0
20260506150600 -17 195 11.3 11.3 0.00 0.00 0.00 -999.0
20260506150501 -17 202 6.4 6.4 0.00 0.00 0.00 -999.0
20260506150401 -17 229 8.0 8.0 0.00 0.00 0.00 -999.0
20260506150304 -17 197 8.0 8.0 0.00 0.00 0.00 -999.0
20260506150101 -17 159 4.8 4.8 0.00 0.00 0.00 -999.0
20260506145901 -17 232 9.7 9.7 0.00 0.00 0.00 -999.0
20260506145801 -17 226 6.4 6.4 0.00 0.00 0.00 -999.0
20260506145700 -17 220 4.8 4.8 0.00 0.00 0.00 -999.0
20260506145601 -17 226 9.7 9.7 0.00 0.00 0.00 -999.0
20260506145400 -17 217 8.0 8.0 0.00 0.00 0.00 -999.0
20260506145301 -17 198 8.0 8.0 0.00 0.00 0.00 -999.0
20260506145201 -17 184 8.0 8.0 0.00 0.00 0.00 -999.0
20260506145100 -17 207 8.0 8.0 0.00 0.00 0.00 -999.0
20260506145000 -17 198 8.0 8.0 0.00 0.00 0.00 -999.0
20260506144900 -17 200 14.5 14.5 0.00 0.00 0.00 -999.0
20260506144700 -17 188 4.8 4.8 0.00 0.00 0.00 -999.0
20260506144600 -17 185 12.9 12.9 0.00 0.00 0.00 -999.0
20260506144400 -17 214 1.6 1.6 0.00 0.00 0.00 -999.0
20260506144200 -17 140 6.4 6.4 0.00 0.00 0.00 -999.0
20260506144100 -17 214 6.4 6.4 0.00 0.00 0.00 -999.0
20260506143900 -17 234 6.4 6.4 0.00 0.00 0.00 -999.0
20260506143801 -17 214 14.5 14.5 0.00 0.00 0.00 -999.0
20260506143700 -17 191 11.3 11.3 0.00 0.00 0.00 -999.0
20260506143600 -17 208 6.4 6.4 0.00 0.00 0.00 -999.0
20260506143500 -17 214 11.3 11.3 0.00 0.00 0.00 -999.0
20260506143301 -17 199 3.2 3.2 0.00 0.00 0.00 -999.0
20260506143200 -17 217 6.4 6.4 0.00 0.00 0.00 -999.0
20260506143100 -17 207 6.4 6.4 0.00 0.00 0.00 -999.0
20260506143000 -17 207 14.5 14.5 0.00 0.00 0.00 -999.0
20260506142701 -17 184 14.5 14.5 0.00 0.00 0.00 -999.0
20260506142601 -17 195 8.0 8.0 0.00 0.00 0.00 -999.0
20260506142401 -17 202 4.8 4.8 0.00 0.00 0.00 -999.0
20260506142301 -17 153 9.7 9.7 0.00 0.00 0.00 -999.0
20260506142200 -17 188 1.6 1.6 0.00 0.00 0.00 -999.0
20260506142001 -17 205 3.2 3.2 0.00 0.00 0.00 -999.0
20260506141801 -17 215 1.6 1.6 0.00 0.00 0.00 -999.0
20260506141501 -17 241 12.9 12.9 0.00 0.00 0.00 -999.0
20260506141401 -17 243 12.9 12.9 0.00 0.00 0.00 -999.0
20260506141301 -17 235 11.3 11.3 0.00 0.00 0.00 -999.0
20260506141200 -17 241 6.4 6.4 0.00 0.00 0.00 -999.0
20260506141100 -17 240 8.0 8.0 0.00 0.00 0.00 -999.0
20260506141001 -17 193 8.0 8.0 0.00 0.00 0.00 -999.0
20260506140901 -17 211 1.6 1.6 0.00 0.00 0.00 -999.0
20260506140801 -17 165 4.8 4.8 0.00 0.00 0.00 -999.0
20260506140701 -17 176 6.4 6.4 0.00 0.00 0.00 -999.0
20260506140600 -17 187 8.0 8.0 0.00 0.00 0.00 -999.0
20260506140500 -17 229 6.4 6.4 0.00 0.00 0.00 -999.0
20260506140401 -17 232 8.0 8.0 0.00 0.00 0.00 -999.0
20260506140301 -17 205 9.7 9.7 0.00 0.00 0.00 -999.0
20260506140201 -17 155 11.3 11.3 0.00 0.00 0.00 -999.0
20260506140101 -17 185 8.0 8.0 0.00 0.00 0.00 -999.0
20260506140000 -17 236 11.3 11.3 0.00 0.00 0.00 -999.0
20260506135901 -17 222 9.7 9.7 0.00 0.00 0.00 -999.0
20260506135800 -17 229 6.4 6.4 0.00 0.00 0.00 -999.0
20260506135601 -17 172 8.0 8.0 0.00 0.00 0.00 -999.0
20260506135500 -17 195 6.4 6.4 0.00 0.00 0.00 -999.0
20260506135400 -17 192 4.8 4.8 0.00 0.00 0.00 -999.0
20260506135300 -17 229 4.8 4.8 0.00 0.00 0.00 -999.0
20260506135201 -17 184 6.4 6.4 0.00 0.00 0.00 -999.0
20260506134901 -17 227 1.6 1.6 0.00 0.00 0.00 -999.0
20260506134801 -17 145 6.4 6.4 0.00 0.00 0.00 -999.0
20260506134700 -17 241 8.0 8.0 0.00 0.00 0.00 -999.0
20260506134600 -17 197 8.0 8.0 0.00 0.00 0.00 -999.0
20260506134501 -17 166 3.2 3.2 0.00 0.00 0.00 -999.0
20260506134400 -17 212 4.8 4.8 0.00 0.00 0.00 -999.0
20260506134300 -17 186 4.8 4.8 0.00 0.00 0.00 -999.0
20260506134200 -17 189 8.0 8.0 0.00 0.00 0.00 -999.0
20260506134100 -17 219 9.7 9.7 0.00 0.00 0.00 -999.0
20260506134001 -17 232 9.7 9.7 0.00 0.00 0.00 -999.0
20260506133900 -17 165 3.2 3.2 0.00 0.00 0.00 -999.0
20260506133701 -17 227 9.7 9.7 0.00 0.00 0.00 -999.0
20260506133600 -17 218 3.2 3.2 0.00 0.00 0.00 -999.0
20260506133501 -17 213 11.3 11.3 0.00 0.00 0.00 -999.0
20260506133401 -17 196 9.7 9.7 0.00 0.00 0.00 -999.0
20260506133300 -17 229 9.7 9.7 0.00 0.00 0.00 -999.0
20260506133201 -17 223 6.4 6.4 0.00 0.00 0.00 -999.0
20260506133100 -17 210 9.7 9.7 0.00 0.00 0.00 -999.0
20260506133001 -17 203 11.3 11.3 0.00 0.00 0.00 -999.0
20260506132900 -17 207 6.4 6.4 0.00 0.00 0.00 -999.0
20260506132801 -17 219 8.0 8.0 0.00 0.00 0.00 -999.0
20260506132601 -17 214 9.7 9.7 0.00 0.00 0.00 -999.0
20260506132501 -17 164 4.8 4.8 0.00 0.00 0.00 -999.0
20260506132400 -17 208 8.0 8.0 0.00 0.00 0.00 -999.0
20260506132200 -17 203 6.4 6.4 0.00 0.00 0.00 -999.0
20260506132001 -17 211 6.4 6.4 0.00 0.00 0.00 -999.0
20260506131800 -17 203 8.0 8.0 0.00 0.00 0.00 -999.0
20260506131601 -17 191 4.8 4.8 0.00 0.00 0.00 -999.0
20260506131500 -17 219 11.3 11.3 0.00 0.00 0.00 -999.0
20260506131401 -17 247 4.8 4.8 0.00 0.00 0.00 -999.0
20260506131300 -17 219 8.0 8.0 0.00 0.00 0.00 -999.0
20260506131201 -17 217 11.3 11.3 0.00 0.00 0.00 -999.0
20260506131101 -17 195 6.4 6.4 0.00 0.00 0.00 -999.0
20260506131001 -17 227 6.4 6.4 0.00 0.00 0.00 -999.0
20260506130900 -17 232 11.3 11.3 0.00 0.00 0.00 -999.0
20260506130800 -17 194 11.3 11.3 0.00 0.00 0.00 -999.0
20260506130701 -17 215 12.9 12.9 0.00 0.00 0.00 -999.0
20260506130600 -17 162 9.7 9.7 0.00 0.00 0.00 -999.0
20260506130400 -17 193 9.7 9.7 0.00 0.00 0.00 -999.0
20260506130200 -17 192 4.8 4.8 0.00 0.00 0.00 -999.0
20260506130100 -17 179 8.0 8.0 0.00 0.00 0.00 -999.0
20260506130001 -17 214 0.0 0.0 0.00 0.00 0.00 -999.0
20260506125801 -17 232 8.0 8.0 0.00 0.00 0.00 -999.0
20260506125700 -17 234 8.0 8.0 0.00 0.00 0.00 -999.0
20260506125600 -17 209 12.9 12.9 0.00 0.00 0.00 -999.0
20260506125500 -17 203 8.0 8.0 0.00 0.00 0.00 -999.0
20260506125401 -17 224 9.7 9.7 0.00 0.00 0.00 -999.0
20260506125301 -17 214 14.5 14.5 0.00 0.00 0.00 -999.0
20260506125200 -17 226 8.0 8.0 0.00 0.00 0.00 -999.0
20260506125101 -17 193 3.2 3.2 0.00 0.00 0.00 -999.0
20260506125000 -17 226 11.3 11.3 0.00 0.00 0.00 -999.0
20260506124901 -17 176 3.2 3.2 0.00 0.00 0.00 -999.0
20260506124800 -17 213 6.4 6.4 0.00 0.00 0.00 -999.0
20260506124701 -17 212 6.4 6.4 0.00 0.00 0.00 -999.0
20260506124600 -17 229 4.8 4.8 0.00 0.00 0.00 -999.0
20260506124501 -17 224 4.8 4.8 0.00 0.00 0.00 -999.0
20260506124400 -17 165 4.8 4.8 0.00 0.00 0.00 -999.0
20260506124301 -17 218 11.3 11.3 0.00 0.00 0.00 -999.0
20260506124200 -17 198 11.3 11.3 0.00 0.00 0.00 -999.0
20260506124100 -17 214 8.0 8.0 0.00 0.00 0.00 -999.0
20260506124000 -17 230 4.8 4.8 0.00 0.00 0.00 -999.0
20260506123900 -17 162 4.8 4.8 0.00 0.00 0.00 -999.0
20260506123800 -17 157 8.0 8.0 0.00 0.00 0.00 -999.0
20260506123700 -17 229 9.7 9.7 0.00 0.00 0.00 -999.0
20260506123600 -17 235 16.1 16.1 0.00 0.00 0.00 -999.0
20260506123500 -17 220 16.1 16.1 0.00 0.00 0.00 -999.0
20260506123401 -17 233 9.7 9.7 0.00 0.00 0.00 -999.0
20260506123300 -17 185 6.4 6.4 0.00 0.00 0.00 -999.0
20260506123001 -17 214 9.7 9.7 0.00 0.00 0.00 -999.0
20260506122901 -17 202 3.2 3.2 0.00 0.00 0.00 -999.0
20260506122801 -17 166 3.2 3.2 0.00 0.00 0.00 -999.0
20260506122600 -17 220 9.7 9.7 0.00 0.00 0.00 -999.0
20260506122401 -17 221 4.8 4.8 0.00 0.00 0.00 -999.0
20260506122301 -17 206 3.2 3.2 0.00 0.00 0.00 -999.0
20260506122201 -17 210 8.0 8.0 0.00 0.00 0.00 -999.0
20260506122100 -17 210 8.0 8.0 0.00 0.00 0.00 -999.0
20260506122001 -17 226 11.3 11.3 0.00 0.00 0.00 -999.0
20260506121802 -17 221 3.2 3.2 0.00 0.00 0.00 -999.0
20260506121700 -17 200 6.4 6.4 0.00 0.00 0.00 -999.0
20260506121601 -17 217 3.2 3.2 0.00 0.00 0.00 -999.0
20260506121400 -17 231 8.0 8.0 0.00 0.00 0.00 -999.0
20260506121300 -17 194 3.2 3.2 0.00 0.00 0.00 -999.0
20260506121201 -17 217 1.6 1.6 0.00 0.00 0.00 -999.0
20260506121100 -17 214 4.8 4.8 0.00 0.00 0.00 -999.0
20260506121000 -17 211 3.2 3.2 0.00 0.00 0.00 -999.0
20260506120901 -17 183 8.0 8.0 0.00 0.00 0.00 -999.0
20260506120800 -17 226 11.3 11.3 0.00 0.00 0.00 -999.0
20260506120701 -17 141 6.4 6.4 0.00 0.00 0.00 -999.0
20260506120600 -17 218 6.4 6.4 0.00 0.00 0.00 -999.0
20260506120502 -17 194 4.8 4.8 0.00 0.00 0.00 -999.0
20260506120300 -17 210 1.6 1.6 0.00 0.00 0.00 -999.0
20260506120200 -17 229 6.4 6.4 0.00 0.00 0.00 -999.0
20260506120100 -17 209 1.6 1.6 0.00 0.00 0.00 -999.0
20260506120001 -17 204 9.7 9.7 0.00 0.00 0.00 -999.0
20260506115902 -17 207 4.8 4.8 0.00 0.00 0.00 -999.0
20260506115800 -17 198 3.2 3.2 0.00 0.00 0.00 -999.0
20260506115700 -17 205 1.6 1.6 0.00 0.00 0.00 -999.0
20260506115600 -17 196 6.4 6.4 0.00 0.00 0.00 -999.0
20260506115500 -17 234 4.8 4.8 0.00 0.00 0.00 -999.0
20260506115400 -17 234 8.0 8.0 0.00 0.00 0.00 -999.0
20260506115200 -17 221 4.8 4.8 0.00 0.00 0.00 -999.0
20260506115101 -17 204 8.0 8.0 0.00 0.00 0.00 -999.0
20260506115000 -17 196 6.4 6.4 0.00 0.00 0.00 -999.0
20260506114900 -17 212 4.8 4.8 0.00 0.00 0.00 -999.0
20260506114800 -17 137 6.4 6.4 0.00 0.00 0.00 -999.0
20260506114700 -17 197 9.7 9.7 0.00 0.00 0.00 -999.0
20260506114601 -17 174 8.0 8.0 0.00 0.00 0.00 -999.0
20260506114500 -17 243 3.2 3.2 0.00 0.00 0.00 -999.0
20260506114400 -17 205 6.4 6.4 0.00 0.00 0.00 -999.0
20260506114300 -17 210 6.4 6.4 0.00 0.00 0.00 -999.0
20260506114200 -17 198 8.0 8.0 0.00 0.00 0.00 -999.0
20260506114101 -17 189 8.0 8.0 0.00 0.00 0.00 -999.0
20260506114000 -17 168 8.0 8.0 0.00 0.00 0.00 -999.0
20260506113900 -17 191 1.6 1.6 0.00 0.00 0.00 -999.0
20260506113703 -17 136 6.4 6.4 0.00 0.00 0.00 -999.0
20260506113402 -17 188 3.2 3.2 0.00 0.00 0.00 -999.0
20260506113301 -17 203 1.6 1.6 0.00 0.00 0.00 -999.0
20260506113200 -17 224 8.0 8.0 0.00 0.00 0.00 -999.0
20260506113100 -17 219 4.8 4.8 0.00 0.00 0.00 -999.0
20260506113000 -17 179 3.2 3.2 0.00 0.00 0.00 -999.0
20260506112900 -17 168 3.2 3.2 0.00 0.00 0.00 -999.0
20260506112800 -17 211 8.0 8.0 0.00 0.00 0.00 -999.0
20260506112701 -17 141 1.6 1.6 0.00 0.00 0.00 -999.0
20260506112600 -17 195 1.6 1.6 0.00 0.00 0.00 -999.0
20260506112500 -17 196 6.4 6.4 0.00 0.00 0.00 -999.0
20260506112400 -17 190 6.4 6.4 0.00 0.00 0.00 -999.0
20260506112300 -17 196 8.0 8.0 0.00 0.00 0.00 -999.0
20260506112201 -17 182 11.3 11.3 0.00 0.00 0.00 -999.0
20260506112101 -17 153 6.4 6.4 0.00 0.00 0.00 -999.0
20260506112001 -17 181 9.7 9.7 0.00 0.00 0.00 -999.0
20260506111900 -17 182 4.8 4.8 0.00 0.00 0.00 -999.0
20260506111801 -17 159 4.8 4.8 0.00 0.00 0.00 -999.0
20260506111700 -17 202 6.4 6.4 0.00 0.00 0.00 -999.0
20260506111501 -17 203 9.7 9.7 0.00 0.00 0.00 -999.0
20260506111401 -17 196 4.8 4.8 0.00 0.00 0.00 -999.0
20260506111300 -17 160 12.9 12.9 0.00 0.00 0.00 -999.0
20260506110900 -17 209 4.8 4.8 0.00 0.00 0.00 -999.0
20260506110800 -17 167 6.4 6.4 0.00 0.00 0.00 -999.0
20260506110701 -17 191 8.0 8.0 0.00 0.00 0.00 -999.0
20260506110600 -17 176 4.8 4.8 0.00 0.00 0.00 -999.0
20260506110500 -17 179 4.8 4.8 0.00 0.00 0.00 -999.0
20260506110300 -17 193 4.8 4.8 0.00 0.00 0.00 -999.0
20260506110200 -17 222 4.8 4.8 0.00 0.00 0.00 -999.0
20260506105900 -17 160 3.2 3.2 0.00 0.00 0.00 -999.0
20260506105600 -17 197 9.7 9.7 0.00 0.00 0.00 -999.0
20260506105500 -17 199 6.4 6.4 0.00 0.00 0.00 -999.0
20260506105100 -17 198 8.0 8.0 0.00 0.00 0.00 -999.0
20260506105000 -17 201 3.2 3.2 0.00 0.00 0.00 -999.0
20260506104800 -17 220 8.0 8.0 0.00 0.00 0.00 -999.0
20260506104700 -17 212 3.2 3.2 0.00 0.00 0.00 -999.0
20260506104600 -17 193 4.8 4.8 0.00 0.00 0.00 -999.0
20260506104500 -17 164 8.0 8.0 0.00 0.00 0.00 -999.0
20260506104300 -17 156 3.2 3.2 0.00 0.00 0.00 -999.0
20260506104200 -17 193 8.0 8.0 0.00 0.00 0.00 -999.0
20260506104100 -17 193 3.2 3.2 0.00 0.00 0.00 -999.0
20260506104001 -17 192 6.4 6.4 0.00 0.00 0.00 -999.0
20260506103900 -17 227 11.3 11.3 0.00 0.00 0.00 -999.0
20260506103800 -17 157 3.2 3.2 0.00 0.00 0.00 -999.0
20260506103600 -17 188 3.2 3.2 0.00 0.00 0.00 -999.0
20260506103501 -17 178 9.7 9.7 0.00 0.00 0.00 -999.0
20260506103400 -17 196 6.4 6.4 0.00 0.00 0.00 -999.0
20260506103300 -17 199 8.0 8.0 0.00 0.00 0.00 -999.0
20260506103200 -17 204 12.9 12.9 0.00 0.00 0.00 -999.0
20260506103100 -17 195 4.8 4.8 0.00 0.00 0.00 -999.0
20260506103000 -17 199 6.4 6.4 0.00 0.00 0.00 -999.0
20260506102901 -17 169 9.7 9.7 0.00 0.00 0.00 -999.0
20260506102801 -17 194 4.8 4.8 0.00 0.00 0.00 -999.0
20260506102700 -17 198 6.4 6.4 0.00 0.00 0.00 -999.0
20260506102600 -17 219 9.7 9.7 0.00 0.00 0.00 -999.0
20260506102500 -17 217 11.3 11.3 0.00 0.00 0.00 -999.0
20260506102400 -17 217 4.8 4.8 0.00 0.00 0.00 -999.0
20260506102301 -17 202 6.4 6.4 0.00 0.00 0.00 -999.0
20260506102100 -17 187 4.8 4.8 0.00 0.00 0.00 -999.0
20260506102000 -17 185 3.2 3.2 0.00 0.00 0.00 -999.0
20260506101900 -17 170 8.0 8.0 0.00 0.00 0.00 -999.0
20260506101800 -17 186 14.5 14.5 0.00 0.00 0.00 -999.0
20260506101700 -17 167 4.8 4.8 0.00 0.00 0.00 -999.0
20260506101500 -17 202 11.3 11.3 0.00 0.00 0.00 -999.0
20260506101401 -17 174 3.2 3.2 0.00 0.00 0.00 -999.0
20260506101300 -17 189 9.7 9.7 0.00 0.00 0.00 -999.0
20260506101201 -17 188 4.8 4.8 0.00 0.00 0.00 -999.0
20260506101000 -17 207 8.0 8.0 0.00 0.00 0.00 -999.0
20260506100900 -17 190 6.4 6.4 0.00 0.00 0.00 -999.0
20260506100801 -17 197 4.8 4.8 0.00 0.00 0.00 -999.0
20260506100700 -17 191 4.8 4.8 0.00 0.00 0.00 -999.0
20260506100600 -17 164 4.8 4.8 0.00 0.00 0.00 -999.0
20260506100500 -17 217 4.8 4.8 0.00 0.00 0.00 -999.0
20260506100400 -17 185 9.7 9.7 0.00 0.00 0.00 -999.0
20260506100300 -17 167 3.2 3.2 0.00 0.00 0.00 -999.0
20260506100200 -17 188 8.0 8.0 0.00 0.00 0.00 -999.0
20260506100100 -17 193 8.0 8.0 0.00 0.00 0.00 -999.0
20260506100001 -17 212 1.6 1.6 0.00 0.00 0.00 -999.0
20260506095900 -17 181 12.9 12.9 0.00 0.00 0.00 -999.0
20260506095800 -17 200 4.8 4.8 0.00 0.00 0.00 -999.0
20260506095700 -17 169 11.3 11.3 0.00 0.00 0.00 -999.0
20260506095601 -17 200 9.7 9.7 0.00 0.00 0.00 -999.0
20260506095301 -17 197 6.4 6.4 0.00 0.00 0.00 -999.0
20260506095200 -17 195 8.0 8.0 0.00 0.00 0.00 -999.0
20260506095100 -17 155 6.4 6.4 0.00 0.00 0.00 -999.0
20260506095001 -17 184 4.8 4.8 0.00 0.00 0.00 -999.0
20260506094900 -17 202 4.8 4.8 0.00 0.00 0.00 -999.0
20260506094800 -17 190 3.2 3.2 0.00 0.00 0.00 -999.0
20260506094701 -17 187 9.7 9.7 0.00 0.00 0.00 -999.0
20260506094601 -17 169 4.8 4.8 0.00 0.00 0.00 -999.0
20260506094501 -17 238 6.4 6.4 0.00 0.00 0.00 -999.0
20260506094201 -17 203 4.8 4.8 0.00 0.00 0.00 -999.0
20260506094100 -17 235 4.8 4.8 0.00 0.00 0.00 -999.0
20260506094000 -17 226 8.0 8.0 0.00 0.00 0.00 -999.0
20260506093901 -17 181 8.0 8.0 0.00 0.00 0.00 -999.0
20260506093801 -17 211 8.0 8.0 0.00 0.00 0.00 -999.0
20260506093700 -17 149 9.7 9.7 0.00 0.00 0.00 -999.0
20260506093600 -17 155 8.0 8.0 0.00 0.00 0.00 -999.0
20260506093501 -17 172 1.6 1.6 0.00 0.00 0.00 -999.0
20260506093100 -17 207 6.4 6.4 0.00 0.00 0.00 -999.0
20260506093000 -17 165 1.6 1.6 0.00 0.00 0.00 -999.0
20260506092901 -17 193 6.4 6.4 0.00 0.00 0.00 -999.0
20260506092801 -17 200 9.7 9.7 0.00 0.00 0.00 -999.0
20260506092700 -17 191 6.4 6.4 0.00 0.00 0.00 -999.0
20260506092601 -17 157 6.4 6.4 0.00 0.00 0.00 -999.0
20260506092500 -17 191 3.2 3.2 0.00 0.00 0.00 -999.0
20260506092400 -17 207 4.8 4.8 0.00 0.00 0.00 -999.0
20260506092301 -17 181 3.2 3.2 0.00 0.00 0.00 -999.0
20260506092201 -17 193 11.3 11.3 0.00 0.00 0.00 -999.0
20260506092000 -17 192 6.4 6.4 0.00 0.00 0.00 -999.0
20260506091900 -17 203 1.6 1.6 0.00 0.00 0.00 -999.0
20260506091801 -17 230 4.8 4.8 0.00 0.00 0.00 -999.0
20260506091700 -17 174 3.2 3.2 0.00 0.00 0.00 -999.0
20260506091600 -17 151 4.8 4.8 0.00 0.00 0.00 -999.0
20260506091401 -17 217 11.3 11.3 0.00 0.00 0.00 -999.0
20260506091302 -17 192 4.8 4.8 0.00 0.00 0.00 -999.0
20260506091200 -17 189 14.5 14.5 0.00 0.00 0.00 -999.0
20260506091101 -17 204 9.7 9.7 0.00 0.00 0.00 -999.0
20260506091001 -17 207 4.8 4.8 0.00 0.00 0.00 -999.0
20260506090900 -17 199 3.2 3.2 0.00 0.00 0.00 -999.0
20260506090801 -17 165 8.0 8.0 0.00 0.00 0.00 -999.0
20260506090701 -17 210 3.2 3.2 0.00 0.00 0.00 -999.0
20260506090601 -17 219 8.0 8.0 0.00 0.00 0.00 -999.0
20260506090500 -17 169 11.3 11.3 0.00 0.00 0.00 -999.0
20260506090200 -17 184 4.8 4.8 0.00 0.00 0.00 -999.0
20260506085901 -17 174 11.3 11.3 0.00 0.00 0.00 -999.0
20260506085800 -17 200 1.6 1.6 0.00 0.00 0.00 -999.0
20260506085702 -17 174 8.0 8.0 0.00 0.00 0.00 -999.0
20260506085500 -17 200 1.6 1.6 0.00 0.00 0.00 -999.0
20260506085401 -17 167 4.8 4.8 0.00 0.00 0.00 -999.0
20260506085300 -17 172 9.7 9.7 0.00 0.00 0.00 -999.0
20260506085001 -17 207 3.2 3.2 0.00 0.00 0.00 -999.0
20260506084901 -17 208 3.2 3.2 0.00 0.00 0.00 -999.0
20260506084801 -17 192 3.2 3.2 0.00 0.00 0.00 -999.0
20260506084701 -17 178 6.4 6.4 0.00 0.00 0.00 -999.0
20260506084600 -17 175 4.8 4.8 0.00 0.00 0.00 -999.0
20260506084500 -17 157 6.4 6.4 0.00 0.00 0.00 -999.0
20260506084401 -17 177 9.7 9.7 0.00 0.00 0.00 -999.0
20260506084300 -17 173 4.8 4.8 0.00 0.00 0.00 -999.0
20260506084200 -17 155 1.6 1.6 0.00 0.00 0.00 -999.0
20260506084101 -17 165 4.8 4.8 0.00 0.00 0.00 -999.0
20260506084001 -17 182 3.2 3.2 0.00 0.00 0.00 -999.0
20260506083900 -17 211 4.8 4.8 0.00 0.00 0.00 -999.0
20260506083800 -17 243 6.4 6.4 0.00 0.00 0.00 -999.0
20260506083701 -17 155 6.4 6.4 0.00 0.00 0.00 -999.0
20260506083600 -17 212 6.4 6.4 0.00 0.00 0.00 -999.0
20260506083500 -17 203 6.4 6.4 0.00 0.00 0.00 -999.0
20260506083400 -17 204 4.8 4.8 0.00 0.00 0.00 -999.0
20260506083301 -17 210 8.0 8.0 0.00 0.00 0.00 -999.0
20260506083201 -17 167 3.2 3.2 0.00 0.00 0.00 -999.0
20260506083001 -17 165 4.8 4.8 0.00 0.00 0.00 -999.0
20260506082901 -17 139 3.2 3.2 0.00 0.00 0.00 -999.0
20260506082700 -17 189 3.2 3.2 0.00 0.00 0.00 -999.0
20260506082500 -17 179 3.2 3.2 0.00 0.00 0.00 -999.0
20260506082400 -17 188 9.7 9.7 0.00 0.00 0.00 -999.0
20260506082200 -17 198 9.7 9.7 0.00 0.00 0.00 -999.0
20260506082101 -17 212 6.4 6.4 0.00 0.00 0.00 -999.0
20260506082000 -17 208 1.6 1.6 0.00 0.00 0.00 -999.0
20260506081900 -17 192 6.4 6.4 0.00 0.00 0.00 -999.0
20260506081701 -17 173 3.2 3.2 0.00 0.00 0.00 -999.0
20260506081600 -17 200 6.4 6.4 0.00 0.00 0.00 -999.0
20260506081500 -17 172 8.0 8.0 0.00 0.00 0.00 -999.0
20260506081100 -17 176 4.8 4.8 0.00 0.00 0.00 -999.0
20260506081000 -17 178 8.0 8.0 0.00 0.00 0.00 -999.0
20260506080900 -17 173 6.4 6.4 0.00 0.00 0.00 -999.0
20260506080800 -17 213 6.4 6.4 0.00 0.00 0.00 -999.0
20260506080700 -17 202 6.4 6.4 0.00 0.00 0.00 -999.0
20260506080600 -17 162 4.8 4.8 0.00 0.00 0.00 -999.0
20260506080500 -17 188 11.3 11.3 0.00 0.00 0.00 -999.0
20260506080400 -17 173 8.0 8.0 0.00 0.00 0.00 -999.0
20260506073500 -17 214 4.8 4.8 0.00 0.00 0.00 -999.0
20260506073400 -17 145 6.4 6.4 0.00 0.00 0.00 -999.0
20260506073300 -17 185 3.2 3.2 0.00 0.00 0.00 -999.0
20260506073200 -17 203 3.2 3.2 0.00 0.00 0.00 -999.0
20260506073001 -17 168 8.0 8.0 0.00 0.00 0.00 -999.0
20260506072700 -17 158 6.4 6.4 0.00 0.00 0.00 -999.0
20260506072600 -17 191 6.4 6.4 0.00 0.00 0.00 -999.0
20260506072500 -17 203 4.8 4.8 0.00 0.00 0.00 -999.0
20260506072401 -17 198 4.8 4.8 0.00 0.00 0.00 -999.0
20260506072300 -17 232 3.2 3.2 0.00 0.00 0.00 -999.0
20260506072200 -17 215 6.4 6.4 0.00 0.00 0.00 -999.0
20260506072100 -17 224 9.7 9.7 0.00 0.00 0.00 -999.0
20260506072000 -17 190 4.8 4.8 0.00 0.00 0.00 -999.0
20260506071900 -17 202 6.4 6.4 0.00 0.00 0.00 -999.0
20260506071800 -17 196 4.8 4.8 0.00 0.00 0.00 -999.0
20260506071601 -17 206 3.2 3.2 0.00 0.00 0.00 -999.0
20260506071400 -17 232 3.2 3.2 0.00 0.00 0.00 -999.0
20260506071301 -17 153 4.8 4.8 0.00 0.00 0.00 -999.0
20260506071200 -17 198 3.2 3.2 0.00 0.00 0.00 -999.0
20260506071100 -17 198 6.4 6.4 0.00 0.00 0.00 -999.0
20260506070800 -17 181 11.3 11.3 0.00 0.00 0.00 -999.0
20260506070700 -17 193 6.4 6.4 0.00 0.00 0.00 -999.0
20260506070600 -17 174 4.8 4.8 0.00 0.00 0.00 -999.0
20260506070500 -17 214 3.2 3.2 0.00 0.00 0.00 -999.0
20260506070400 -17 195 6.4 6.4 0.00 0.00 0.00 -999.0
20260506070300 -17 149 8.0 8.0 0.00 0.00 0.00 -999.0
20260506062300 -17 198 4.8 4.8 0.00 0.00 0.00 -999.0
20260506062201 -17 211 6.4 6.4 0.00 0.00 0.00 -999.0
20260506062100 -17 184 4.8 4.8 0.00 0.00 0.00 -999.0
20260506061800 -17 196 3.2 3.2 0.00 0.00 0.00 -999.0
20260506061701 -17 184 6.4 6.4 0.00 0.00 0.00 -999.0
20260506061601 -17 210 1.6 1.6 0.00 0.00 0.00 -999.0
20260506061500 -17 142 3.2 3.2 0.00 0.00 0.00 -999.0
20260506061400 -17 177 9.7 9.7 0.00 0.00 0.00 -999.0
20260506061200 -17 185 8.0 8.0 0.00 0.00 0.00 -999.0
20260506061101 -17 198 3.2 3.2 0.00 0.00 0.00 -999.0
20260506061000 -17 175 6.4 6.4 0.00 0.00 0.00 -999.0
20260506060801 -17 162 8.0 8.0 0.00 0.00 0.00 -999.0
20260506060600 -17 191 6.4 6.4 0.00 0.00 0.00 -999.0
20260506060501 -17 168 6.4 6.4 0.00 0.00 0.00 -999.0
20260506060301 -17 217 4.8 4.8 0.00 0.00 0.00 -999.0
20260506051300 -17 158 4.8 4.8 0.00 0.00 0.00 -999.0
20260506051201 -17 222 8.0 8.0 0.00 0.00 0.00 -999.0
20260506051000 -17 189 1.6 1.6 0.00 0.00 0.00 -999.0
20260506050900 -17 193 4.8 4.8 0.00 0.00 0.00 -999.0
20260506050801 -17 195 6.4 6.4 0.00 0.00 0.00 -999.0
20260506050700 -17 188 4.8 4.8 0.00 0.00 0.00 -999.0
20260506050501 -17 200 3.2 3.2 0.00 0.00 0.00 -999.0
20260506050400 -17 217 3.2 3.2 0.00 0.00 0.00 -999.0
20260506050201 -17 185 1.6 1.6 0.00 0.00 0.00 -999.0
20260506045101 -17 213 1.6 1.6 0.00 0.00 0.00 -999.0
20260506045001 -17 200 6.4 6.4 0.00 0.00 0.00 -999.0
20260506044901 -17 162 1.6 1.6 0.00 0.00 0.00 -999.0
20260506044700 -17 159 4.8 4.8 0.00 0.00 0.00 -999.0
20260506044601 -17 205 3.2 3.2 0.00 0.00 0.00 -999.0
20260506044501 -17 199 1.6 1.6 0.00 0.00 0.00 -999.0
20260506044400 -17 215 1.6 1.6 0.00 0.00 0.00 -999.0
20260506044000 -17 162 8.0 8.0 0.00 0.00 0.00 -999.0
20260506043900 -17 202 3.2 3.2 0.00 0.00 0.00 -999.0
20260506043801 -17 157 3.2 3.2 0.00 0.00 0.00 -999.0
20260506043701 -17 185 4.8 4.8 0.00 0.00 0.00 -999.0
20260506043601 -17 162 4.8 4.8 0.00 0.00 0.00 -999.0
20260506043501 -17 174 4.8 4.8 0.00 0.00 0.00 -999.0
20260506043401 -17 148 4.8 4.8 0.00 0.00 0.00 -999.0
20260506043201 -17 188 3.2 3.2 0.00 0.00 0.00 -999.0
20260506043100 -17 167 3.2 3.2 0.00 0.00 0.00 -999.0
20260506043001 -17 195 6.4 6.4 0.00 0.00 0.00 -999.0
20260506042900 -17 182 3.2 3.2 0.00 0.00 0.00 -999.0
20260506042801 -17 217 3.2 3.2 0.00 0.00 0.00 -999.0
20260506042600 -17 205 3.2 3.2 0.00 0.00 0.00 -999.0
20260506042401 -17 202 3.2 3.2 0.00 0.00 0.00 -999.0
20260506042201 -17 210 4.8 4.8 0.00 0.00 0.00 -999.0
20260506042100 -17 181 3.2 3.2 0.00 0.00 0.00 -999.0
20260506042000 -17 188 6.4 6.4 0.00 0.00 0.00 -999.0
20260506041900 -17 169 4.8 4.8 0.00 0.00 0.00 -999.0
20260506041801 -17 179 3.2 3.2 0.00 0.00 0.00 -999.0
20260506041701 -17 162 4.8 4.8 0.00 0.00 0.00 -999.0
20260506041601 -17 203 3.2 3.2 0.00 0.00 0.00 -999.0
20260506041501 -17 196 1.6 1.6 0.00 0.00 0.00 -999.0
20260506041401 -17 195 4.8 4.8 0.00 0.00 0.00 -999.0
20260506041301 -17 189 1.6 1.6 0.00 0.00 0.00 -999.0
20260506041200 -17 176 3.2 3.2 0.00 0.00 0.00 -999.0
20260506041100 -17 181 3.2 3.2 0.00 0.00 0.00 -999.0
20260506041001 -17 156 3.2 3.2 0.00 0.00 0.00 -999.0
20260506040901 -17 162 3.2 3.2 0.00 0.00 0.00 -999.0
20260506040800 -17 164 6.4 6.4 0.00 0.00 0.00 -999.0
20260506040701 -17 148 6.4 6.4 0.00 0.00 0.00 -999.0
20260506040601 -17 165 3.2 3.2 0.00 0.00 0.00 -999.0
20260506040500 -17 145 4.8 4.8 0.00 0.00 0.00 -999.0
20260506040401 -17 167 4.8 4.8 0.00 0.00 0.00 -999.0
20260506040300 -17 160 3.2 3.2 0.00 0.00 0.00 -999.0
20260506040201 -17 158 3.2 3.2 0.00 0.00 0.00 -999.0
20260506040100 -17 170 4.8 4.8 0.00 0.00 0.00 -999.0
20260506040000 -17 150 1.6 1.6 0.00 0.00 0.00 -999.0
20260506035901 -17 159 1.6 1.6 0.00 0.00 0.00 -999.0
20260506035701 -17 165 3.2 3.2 0.00 0.00 0.00 -999.0
20260506035500 -17 165 1.6 1.6 0.00 0.00 0.00 -999.0
20260506035301 -17 196 4.8 4.8 0.00 0.00 0.00 -999.0
20260506035101 -17 167 4.8 4.8 0.00 0.00 0.00 -999.0
20260506035001 -17 162 4.8 4.8 0.00 0.00 0.00 -999.0
20260506034901 -17 163 1.6 1.6 0.00 0.00 0.00 -999.0
20260506034701 -17 155 3.2 3.2 0.00 0.00 0.00 -999.0
20260506034600 -17 152 3.2 3.2 0.00 0.00 0.00 -999.0
20260506034500 -17 171 3.2 3.2 0.00 0.00 0.00 -999.0
20260506034400 -17 160 4.8 4.8 0.00 0.00 0.00 -999.0
20260506034300 -17 163 1.6 1.6 0.00 0.00 0.00 -999.0
20260506034101 -17 157 4.8 4.8 0.00 0.00 0.00 -999.0
20260506034001 -17 155 3.2 3.2 0.00 0.00 0.00 -999.0
20260506033901 -17 160 4.8 4.8 0.00 0.00 0.00 -999.0
20260506033801 -17 169 3.2 3.2 0.00 0.00 0.00 -999.0
20260506033701 -17 156 3.2 3.2 0.00 0.00 0.00 -999.0
20260506033200 -17 159 3.2 3.2 0.00 0.00 0.00 -999.0
20260506033100 -17 158 4.8 4.8 0.00 0.00 0.00 -999.0
20260506033001 -17 153 3.2 3.2 0.00 0.00 0.00 -999.0
20260506032900 -17 172 3.2 3.2 0.00 0.00 0.00 -999.0
20260506032801 -17 167 4.8 4.8 0.00 0.00 0.00 -999.0
20260506032701 -17 162 3.2 3.2 0.00 0.00 0.00 -999.0
20260506032601 -17 155 1.6 1.6 0.00 0.00 0.00 -999.0
20260506032500 -17 169 3.2 3.2 0.00 0.00 0.00 -999.0
20260506032300 -17 157 3.2 3.2 0.00 0.00 0.00 -999.0
20260506032201 -17 158 3.2 3.2 0.00 0.00 0.00 -999.0
20260506032000 -17 164 1.6 1.6 0.00 0.00 0.00 -999.0
20260506031901 -17 162 3.2 3.2 0.00 0.00 0.00 -999.0
20260506031801 -17 160 1.6 1.6 0.00 0.00 0.00 -999.0
20260506031700 -17 165 1.6 1.6 0.00 0.00 0.00 -999.0
20260506031601 -17 165 0.0 0.0 0.00 0.00 0.00 -999.0
20260506031500 -17 163 1.6 1.6 0.00 0.00 0.00 -999.0
20260506031200 -17 157 0.0 0.0 0.00 0.00 0.00 -999.0
20260506031000 -17 162 0.0 0.0 0.00 0.00 0.00 -999.0
20260506030900 -17 162 0.0 0.0 0.00 0.00 0.00 -999.0
20260506030801 -17 190 1.6 1.6 0.00 0.00 0.00 -999.0
20260506030601 -17 162 1.6 1.6 0.00 0.00 0.00 -999.0
20260506030501 -17 172 3.2 3.2 0.00 0.00 0.00 -999.0
20260506030400 -17 163 3.2 3.2 0.00 0.00 0.00 -999.0
20260506030300 -17 163 3.2 3.2 0.00 0.00 0.00 -999.0
20260506030201 -17 158 3.2 3.2 0.00 0.00 0.00 -999.0
20260506030001 -17 166 3.2 3.2 0.00 0.00 0.00 -999.0
20260506025900 -17 163 3.2 3.2 0.00 0.00 0.00 -999.0
20260506025700 -17 148 3.2 3.2 0.00 0.00 0.00 -999.0
20260506025601 -17 154 1.6 1.6 0.00 0.00 0.00 -999.0
20260506025501 -17 149 4.8 4.8 0.00 0.00 0.00 -999.0
20260506025301 -17 170 3.2 3.2 0.00 0.00 0.00 -999.0
20260506025200 -17 166 1.6 1.6 0.00 0.00 0.00 -999.0
20260506025101 -17 155 1.6 1.6 0.00 0.00 0.00 -999.0
20260506025001 -17 160 3.2 3.2 0.00 0.00 0.00 -999.0
20260506024901 -17 170 1.6 1.6 0.00 0.00 0.00 -999.0
20260506024801 -17 160 3.2 3.2 0.00 0.00 0.00 -999.0
20260506024600 -17 167 3.2 3.2 0.00 0.00 0.00 -999.0
20260506024500 -17 172 1.6 1.6 0.00 0.00 0.00 -999.0
20260506024401 -17 140 1.6 1.6 0.00 0.00 0.00 -999.0
20260506024001 -17 164 1.6 1.6 0.00 0.00 0.00 -999.0
20260506023901 -17 172 1.6 1.6 0.00 0.00 0.00 -999.0
20260506023800 -17 159 1.6 1.6 0.00 0.00 0.00 -999.0
20260506023700 -17 163 1.6 1.6 0.00 0.00 0.00 -999.0
20260506023600 -17 181 3.2 3.2 0.00 0.00 0.00 -999.0
20260506023501 -17 163 1.6 1.6 0.00 0.00 0.00 -999.0
20260506023401 -17 152 4.8 4.8 0.00 0.00 0.00 -999.0
20260506023300 -17 165 4.8 4.8 0.00 0.00 0.00 -999.0
20260506023201 -17 155 1.6 1.6 0.00 0.00 0.00 -999.0
20260506023100 -17 150 3.2 3.2 0.00 0.00 0.00 -999.0
20260506023001 -17 165 3.2 3.2 0.00 0.00 0.00 -999.0
20260506022900 -17 160 4.8 4.8 0.00 0.00 0.00 -999.0
20260506022701 -17 155 3.2 3.2 0.00 0.00 0.00 -999.0
20260506022600 -17 156 3.2 3.2 0.00 0.00 0.00 -999.0
20260506022500 -17 164 3.2 3.2 0.00 0.00 0.00 -999.0
20260506022400 -17 150 3.2 3.2 0.00 0.00 0.00 -999.0
20260506022301 -17 162 1.6 1.6 0.00 0.00 0.00 -999.0
20260506022201 -17 162 3.2 3.2 0.00 0.00 0.00 -999.0
20260506022001 -17 162 1.6 1.6 0.00 0.00 0.00 -999.0
20260506021700 -17 191 1.6 1.6 0.00 0.00 0.00 -999.0
20260506021600 -17 160 3.2 3.2 0.00 0.00 0.00 -999.0
20260506021501 -17 192 0.0 0.0 0.00 0.00 0.00 -999.0
20260506021401 -17 191 1.6 1.6 0.00 0.00 0.00 -999.0
20260506021301 -17 196 1.6 1.6 0.00 0.00 0.00 -999.0
20260506021201 -17 189 1.6 1.6 0.00 0.00 0.00 -999.0
20260506021100 -17 191 0.0 0.0 0.00 0.00 0.00 -999.0
20260506021001 -17 205 0.0 0.0 0.00 0.00 0.00 -999.0
20260506020900 -17 205 1.6 1.6 0.00 0.00 0.00 -999.0
20260506020801 -17 213 1.6 1.6 0.00 0.00 0.00 -999.0
20260506020701 -17 221 1.6 1.6 0.00 0.00 0.00 -999.0
20260506020601 -17 207 3.2 3.2 0.00 0.00 0.00 -999.0
20260506020501 -17 138 1.6 1.6 0.00 0.00 0.00 -999.0
20260506020401 -17 179 3.2 3.2 0.00 0.00 0.00 -999.0
20260506020300 -17 204 1.6 1.6 0.00 0.00 0.00 -999.0
20260506020200 -17 168 1.6 1.6 0.00 0.00 0.00 -999.0
20260506020001 -17 188 1.6 1.6 0.00 0.00 0.00 -999.0
20260506015901 -17 176 4.8 4.8 0.00 0.00 0.00 -999.0
20260506015801 -17 164 3.2 3.2 0.00 0.00 0.00 -999.0
20260506015701 -17 169 4.8 4.8 0.00 0.00 0.00 -999.0
20260506015601 -17 200 0.0 0.0 0.00 0.00 0.00 -999.0
20260506015401 -17 153 4.8 4.8 0.00 0.00 0.00 -999.0
20260506015200 -17 150 3.2 3.2 0.00 0.00 0.00 -999.0
20260506015100 -17 163 3.2 3.2 0.00 0.00 0.00 -999.0
20260506015000 -17 165 3.2 3.2 0.00 0.00 0.00 -999.0
20260506014800 -17 148 4.8 4.8 0.00 0.00 0.00 -999.0
20260506014701 -17 192 1.6 1.6 0.00 0.00 0.00 -999.0
20260506014501 -17 164 1.6 1.6 0.00 0.00 0.00 -999.0
20260506014301 -17 181 1.6 1.6 0.00 0.00 0.00 -999.0
20260506014200 -17 157 4.8 4.8 0.00 0.00 0.00 -999.0
20260506014100 -17 169 1.6 1.6 0.00 0.00 0.00 -999.0
20260506014001 -17 168 1.6 1.6 0.00 0.00 0.00 -999.0
20260506013900 -17 195 3.2 3.2 0.00 0.00 0.00 -999.0
20260506013600 -17 155 3.2 3.2 0.00 0.00 0.00 -999.0
20260506013500 -17 200 3.2 3.2 0.00 0.00 0.00 -999.0
20260506013400 -17 204 3.2 3.2 0.00 0.00 0.00 -999.0
20260506013300 -17 159 3.2 3.2 0.00 0.00 0.00 -999.0
20260506013200 -17 163 4.8 4.8 0.00 0.00 0.00 -999.0
20260506013100 -17 181 3.2 3.2 0.00 0.00 0.00 -999.0
20260506013001 -17 152 6.4 6.4 0.00 0.00 0.00 -999.0
20260506012901 -17 188 1.6 1.6 0.00 0.00 0.00 -999.0
20260506012800 -17 167 6.4 6.4 0.00 0.00 0.00 -999.0
20260506012700 -17 160 6.4 6.4 0.00 0.00 0.00 -999.0
20260506012600 -17 187 4.8 4.8 0.00 0.00 0.00 -999.0
20260506012500 -17 169 1.6 1.6 0.00 0.00 0.00 -999.0
20260506012400 -17 192 3.2 3.2 0.00 0.00 0.00 -999.0
20260506012300 -17 143 1.6 1.6 0.00 0.00 0.00 -999.0
20260506012201 -17 191 0.0 0.0 0.00 0.00 0.00 -999.0
20260506012101 -17 184 1.6 1.6 0.00 0.00 0.00 -999.0
20260506012001 -17 202 3.2 3.2 0.00 0.00 0.00 -999.0
20260506011901 -17 206 1.6 1.6 0.00 0.00 0.00 -999.0
20260506011800 -17 217 4.8 4.8 0.00 0.00 0.00 -999.0
20260506011700 -17 219 4.8 4.8 0.00 0.00 0.00 -999.0
20260506011601 -17 167 0.0 0.0 0.00 0.00 0.00 -999.0
20260506011400 -17 236 1.6 1.6 0.00 0.00 0.00 -999.0
20260506011301 -17 198 0.0 0.0 0.00 0.00 0.00 -999.0
20260506011200 -17 204 3.2 3.2 0.00 0.00 0.00 -999.0
20260506011000 -17 210 1.6 1.6 0.00 0.00 0.00 -999.0
20260506010501 -17 155 6.4 6.4 0.00 0.00 0.00 -999.0
20260506010400 -17 152 9.7 9.7 0.00 0.00 0.00 -999.0
20260506010301 -17 174 4.8 4.8 0.00 0.00 0.00 -999.0
20260506010200 -17 160 6.4 6.4 0.00 0.00 0.00 -999.0
20260506005901 -17 151 4.8 4.8 0.00 0.00 0.00 -999.0
20260506005801 -17 141 11.3 11.3 0.00 0.00 0.00 -999.0
20260506005601 -17 143 8.0 8.0 0.00 0.00 0.00 -999.0
20260506005501 -17 151 11.3 11.3 0.00 0.00 0.00 -999.0
20260506005401 -17 164 12.9 12.9 0.00 0.00 0.00 -999.0
20260506005300 -17 150 6.4 6.4 0.00 0.00 0.00 -999.0
20260506005201 -17 200 4.8 4.8 0.00 0.00 0.00 -999.0
20260506005101 -17 193 14.5 14.5 0.00 0.00 0.00 -999.0
20260506005000 -17 172 14.5 14.5 0.00 0.00 0.00 -999.0
20260506004900 -17 153 14.5 14.5 0.00 0.00 0.00 -999.0
20260506004801 -17 202 4.8 4.8 0.00 0.00 0.00 -999.0
20260506004701 -17 153 9.7 9.7 0.00 0.00 0.00 -999.0
20260506004600 -17 131 8.0 8.0 0.00 0.00 0.00 -999.0
20260506004500 -17 161 14.5 14.5 0.00 0.00 0.00 -999.0
20260506004400 -17 203 3.2 3.2 0.00 0.00 0.00 -999.0
20260506004201 -17 193 1.6 1.6 0.00 0.00 0.00 -999.0
20260506004100 -17 140 6.4 6.4 0.00 0.00 0.00 -999.0
20260506003900 -17 147 9.7 9.7 0.00 0.00 0.00 -999.0
20260506003801 -17 160 8.0 8.0 0.00 0.00 0.00 -999.0
20260506003700 -17 164 3.2 3.2 0.00 0.00 0.00 -999.0
20260506003600 -17 141 8.0 8.0 0.00 0.00 0.00 -999.0
20260506003500 -17 165 6.4 6.4 0.00 0.00 0.00 -999.0
20260506003300 -17 170 11.3 11.3 0.00 0.00 0.00 -999.0
20260506003200 -17 168 12.9 12.9 0.00 0.00 0.00 -999.0
20260506003101 -17 156 11.3 11.3 0.00 0.00 0.00 -999.0
20260506003001 -17 155 16.1 16.1 0.00 0.00 0.00 -999.0
20260506002901 -17 142 12.9 12.9 0.00 0.00 0.00 -999.0
20260506002800 -17 162 8.0 8.0 0.00 0.00 0.00 -999.0
20260506002701 -17 157 12.9 12.9 0.00 0.00 0.00 -999.0
20260506002600 -17 170 11.3 11.3 0.00 0.00 0.00 -999.0
20260506002501 -17 162 9.7 9.7 0.00 0.00 0.00 -999.0
20260506002400 -17 165 8.0 8.0 0.00 0.00 0.00 -999.0
20260506002101 -17 142 8.0 8.0 0.00 0.00 0.00 -999.0
20260506001800 -17 155 12.9 12.9 0.00 0.00 0.00 -999.0
20260506001701 -17 153 12.9 12.9 0.00 0.00 0.00 -999.0
20260506001601 -17 132 11.3 11.3 0.00 0.00 0.00 -999.0
20260506001500 -17 183 8.0 8.0 0.00 0.00 0.00 -999.0
20260506001401 -17 125 6.4 6.4 0.00 0.00 0.00 -999.0
20260506001300 -17 153 9.7 9.7 0.00 0.00 0.00 -999.0
20260506001200 -17 155 14.5 14.5 0.00 0.00 0.00 -999.0
20260506001100 -17 155 12.9 12.9 0.00 0.00 0.00 -999.0
20260506001001 -17 144 17.7 17.7 0.00 0.00 0.00 -999.0
20260506000900 -17 138 19.3 19.3 0.00 0.00 0.00 -999.0
20260506000800 -17 148 14.5 14.5 0.00 0.00 0.00 -999.0
20260506000701 -17 151 14.5 14.5 0.00 0.00 0.00 -999.0
20260506000601 -17 153 17.7 17.7 0.00 0.00 0.00 -999.0
20260506000401 -17 152 17.7 17.7 0.00 0.00 0.00 -999.0
20260506000302 -17 131 14.5 14.5 0.00 0.00 0.00 -999.0
20260506000200 -17 141 17.7 17.7 0.00 0.00 0.00 -999.0
20260506000100 -17 146 16.1 16.1 0.00 0.00 0.00 -999.0
20260506000001 -17 159 17.7 17.7 0.00 0.00 0.00 -999.0
20260505235901 -17 136 19.3 19.3 0.00 0.00 0.00 -999.0
20260505235700 -17 150 14.5 14.5 0.00 0.00 0.00 -999.0
20260505235600 -17 165 11.3 11.3 0.00 0.00 0.00 -999.0
20260505235400 -17 137 16.1 16.1 0.00 0.00 0.00 -999.0
20260505235300 -17 147 12.9 12.9 0.00 0.00 0.00 -999.0
20260505235200 -17 145 12.9 12.9 0.00 0.00 0.00 -999.0
20260505235000 -17 146 20.9 20.9 0.00 0.00 0.00 -999.0
20260505234900 -17 150 12.9 12.9 0.00 0.00 0.00 -999.0
20260505234800 -17 154 19.3 19.3 0.00 0.00 0.00 -999.0
20260505234601 -17 139 16.1 16.1 0.00 0.00 0.00 -999.0
20260505234500 -17 152 12.9 12.9 0.00 0.00 0.00 -999.0
20260505234400 -17 158 16.1 16.1 0.00 0.00 0.00 -999.0
20260505234300 -17 133 17.7 17.7 0.00 0.00 0.00 -999.0
20260505234200 -17 118 14.5 14.5 0.00 0.00 0.00 -999.0
20260505233900 -17 138 17.7 17.7 0.00 0.00 0.00 -999.0
20260505233800 -17 121 19.3 19.3 0.00 0.00 0.00 -999.0
20260505233700 -17 139 22.5 22.5 0.00 0.00 0.00 -999.0
20260505233600 -17 143 16.1 16.1 0.00 0.00 0.00 -999.0
20260505233501 -17 145 19.3 19.3 0.00 0.00 0.00 -999.0
20260505233401 -17 134 19.3 19.3 0.00 0.00 0.00 -999.0
20260505233300 -17 134 17.7 17.7 0.00 0.00 0.00 -999.0
20260505233200 -17 131 16.1 16.1 0.00 0.00 0.00 -999.0
20260505232900 -17 141 17.7 17.7 0.00 0.00 0.00 -999.0
20260505232801 -17 113 17.7 17.7 0.00 0.00 0.00 -999.0
20260505232700 -17 160 14.5 14.5 0.00 0.00 0.00 -999.0
20260505232500 -17 118 16.1 16.1 0.00 0.00 0.00 -999.0
20260505232400 -17 140 16.1 16.1 0.00 0.00 0.00 -999.0
20260505232100 -17 145 14.5 14.5 0.00 0.00 0.00 -999.0
20260505232000 -17 130 19.3 19.3 0.00 0.00 0.00 -999.0
20260505231800 -17 134 14.5 14.5 0.00 0.00 0.00 -999.0
20260505231700 -17 131 19.3 19.3 0.00 0.00 0.00 -999.0
20260505231600 -17 152 16.1 16.1 0.00 0.00 0.00 -999.0
20260505231500 -17 131 17.7 17.7 0.00 0.00 0.00 -999.0
20260505231401 -17 132 17.7 17.7 0.00 0.00 0.00 -999.0
20260505231300 -17 141 17.7 17.7 0.00 0.00 0.00 -999.0
20260505231200 -17 149 20.9 20.9 0.00 0.00 0.00 -999.0
20260505231100 -17 141 22.5 22.5 0.00 0.00 0.00 -999.0
20260505231001 -17 144 17.7 17.7 0.00 0.00 0.00 -999.0
20260505230901 -17 150 20.9 20.9 0.00 0.00 0.00 -999.0
20260505230800 -17 123 17.7 17.7 0.00 0.00 0.00 -999.0
20260505230700 -17 137 20.9 20.9 0.00 0.00 0.00 -999.0
20260505230500 -17 154 22.5 22.5 0.00 0.00 0.00 -999.0
20260505230400 -17 137 22.5 22.5 0.00 0.00 0.00 -999.0
20260505230301 -17 138 17.7 17.7 0.00 0.00 0.00 -999.0
20260505230200 -17 144 16.1 16.1 0.00 0.00 0.00 -999.0
20260505230100 -17 117 19.3 19.3 0.00 0.00 0.00 -999.0
20260505230001 -17 133 27.4 27.4 0.00 0.00 0.00 -999.0
20260505225900 -17 140 20.9 20.9 0.00 0.00 0.00 -999.0
20260505225801 -17 138 20.9 20.9 0.00 0.00 0.00 -999.0
20260505225600 -17 137 17.7 17.7 0.00 0.00 0.00 -999.0
20260505225500 -17 118 19.3 19.3 0.00 0.00 0.00 -999.0
20260505225401 -17 137 12.9 12.9 0.00 0.00 0.00 -999.0
20260505225300 -17 141 17.7 17.7 0.00 0.00 0.00 -999.0
20260505225200 -17 116 22.5 22.5 0.00 0.00 0.00 -999.0
20260505225100 -17 129 12.9 12.9 0.00 0.00 0.00 -999.0
20260505225001 -17 130 19.3 19.3 0.00 0.00 0.00 -999.0
20260505224901 -17 145 20.9 20.9 0.00 0.00 0.00 -999.0
20260505224700 -17 124 22.5 22.5 0.00 0.00 0.00 -999.0
20260505224600 -17 120 20.9 20.9 0.00 0.00 0.00 -999.0
20260505224500 -17 135 16.1 16.1 0.00 0.00 0.00 -999.0
20260505224401 -17 127 25.7 25.7 0.00 0.00 0.00 -999.0
20260505224201 -17 144 20.9 20.9 0.00 0.00 0.00 -999.0
20260505224100 -17 142 20.9 20.9 0.00 0.00 0.00 -999.0
20260505223900 -17 134 22.5 22.5 0.00 0.00 0.00 -999.0
20260505223800 -17 169 22.5 22.5 0.00 0.00 0.00 -999.0
20260505223700 -17 124 24.1 24.1 0.00 0.00 0.00 -999.0
20260505223600 -17 130 22.5 22.5 0.00 0.00 0.00 -999.0
20260505223500 -17 138 19.3 19.3 0.00 0.00 0.00 -999.0
20260505223400 -17 169 16.1 16.1 0.00 0.00 0.00 -999.0
20260505223301 -17 136 20.9 20.9 0.00 0.00 0.00 -999.0
20260505223200 -17 145 20.9 20.9 0.00 0.00 0.00 -999.0
20260505223000 -17 138 20.9 20.9 0.00 0.00 0.00 -999.0
20260505222801 -17 147 19.3 19.3 0.00 0.00 0.00 -999.0
20260505222703 -17 127 24.1 24.1 0.00 0.00 0.00 -999.0
20260505222601 -17 123 20.9 20.9 0.00 0.00 0.00 -999.0
20260505222501 -17 132 22.5 22.5 0.00 0.00 0.00 -999.0
20260505222401 -17 141 20.9 20.9 0.00 0.00 0.00 -999.0
20260505222301 -17 150 17.7 17.7 0.00 0.00 0.00 -999.0